Location: Gradaro
(45.0833°N, 10.8833°E)
Time: 10:03:53
(UTC+00:00)

Cosmos 2263 Rocket - Pass Details

Date: 29 November 2020
Orbit: 823 x 849 km, 71.0° (Epoch: 23 January)

Event Time Altitude Azimuth Distance (km) Brightness Sun altitude
Exits shadow 03:01:10 29° 50° (NE) 1,497 3.8 -36.7°
Drops below altitude 10° 03:04:04 10° 35° (NE) 2,479 5.0 -36.2°
Sets 03:06:35 0° 31° (NNE) 3,421 5.8 -35.7°
